Home   Weather   Rehovot   Past weeks

Flag for Israel Past Weather in Rehovot, Israel — Yesterday and Last 2 Weeks

Now
73 °F

Passing clouds.


Feels Like: 76 °F
Forecast: 68 / 94 °F
Wind: 6 mph from South

Location: Ben Gurion International Airport

Current Time: May 28, 2017 at 3:53:49 am

Latest Report: May 28, 2017 at 3:20 am


Visibility: N/A

Pressure: 29.86 "Hg

Humidity: 61%

Dew Point: 59 °F

Location of RehovotLocation

Past Weather in Rehovot — Graph

°F

Rehovot Temperature Yesterday

Maximum temperature yesterday: 97 °F (at 2:50 pm)
Minimum temperature yesterday: 63 °F (at 3:50 am)
Average temperature yesterday: 81 °F

High & Low Weather Summary for the Past Weeks

 TemperatureHumidityPressure
High97 °F (May 27, 2:50 pm)88% (May 13, 4:20 am)30.04 "Hg (May 13, 4:20 am)
Low59 °F (May 22, 3:20 am)14% (May 27, 5:20 pm)29.65 "Hg (May 19, 1:20 am)
Average74 °F58%29.90 "Hg
* Reported May 13 2:20 am — May 28 2:50 am, Rehovot. Weather by CustomWeather, © 2017

Note: Actual official high and low records may vary slightly from our data, if they occured in-between our weather recording intervals... More about our weather records

Advertising

Rehovot Weather History for the Previous 24 Hours

Scroll right to see more
 ConditionsComfort  
Time TempWeatherWind HumidityBarometerVisibility
2:50 am
Sun, May 28
73 °FClear.6 mph53%29.86 "Hg10 mi
2:20 am75 °FClear.5 mph44%29.86 "Hg10 mi
1:50 am75 °FClear.3 mph44%29.83 "Hg10 mi
12:50 am75 °FClear.2 mph54%29.83 "Hg10 mi
12:20 am77 °FClear.3 mph39%29.83 "Hg10 mi
11:50 pm
Sat, May 27
77 °FClear.1 mph36%29.83 "Hg10 mi
11:20 pm77 °FClear.2 mph34%29.83 "Hg10 mi
10:20 pm82 °FClear.2 mph26%29.80 "Hg10 mi
9:50 pm82 °FClear.1 mph28%29.80 "Hg10 mi
9:20 pm82 °FClear.2 mph26%29.80 "Hg10 mi
8:50 pm84 °FClear.2 mph25%29.80 "Hg10 mi
8:20 pm86 °FClear.6 mph22%29.77 "Hg10 mi
7:50 pm88 °FClear.6 mph19%29.77 "Hg10 mi
7:20 pm90 °FSunny.10 mph20%29.74 "Hg10 mi
6:50 pm93 °FSunny.7 mph16%29.74 "Hg10 mi
6:20 pm93 °FPassing clouds.7 mph15%29.74 "HgN/A
5:50 pm95 °FPassing clouds.8 mph14%29.74 "HgN/A
5:20 pm95 °FSunny.5 mph14%29.77 "Hg10 mi
4:50 pm95 °FPassing clouds.8 mph15%29.77 "HgN/A
4:20 pm95 °FSunny.7 mph15%29.77 "Hg10 mi
3:50 pm95 °FPassing clouds.8 mph15%29.77 "HgN/A
3:20 pm95 °FSunny.9 mph16%29.80 "Hg10 mi
2:50 pm97 °FSunny.9 mph17%29.80 "Hg10 mi
2:20 pm95 °FSunny.9 mph19%29.80 "Hg10 mi
1:50 pm95 °FSunny.9 mph19%29.80 "Hg10 mi
1:20 pm93 °FSunny.9 mph20%29.83 "Hg10 mi
12:50 pm93 °FSunny.7 mph20%29.83 "Hg10 mi
12:20 pm91 °FSunny.5 mph18%29.83 "Hg10 mi
11:50 am91 °FSunny.5 mph18%29.86 "Hg10 mi
11:20 am91 °FSunny.3 mph18%29.86 "Hg10 mi
10:50 am91 °FSunny.2 mph17%29.86 "Hg10 mi
10:20 am88 °FSunny.2 mph21%29.86 "Hg10 mi
9:50 am86 °FSunny.3 mph24%29.86 "Hg10 mi
9:20 am82 °FSunny.3 mph25%29.89 "Hg10 mi
8:50 am81 °FSunny.6 mph24%29.89 "Hg10 mi
8:20 am77 °FSunny.3 mph34%29.89 "Hg10 mi
7:50 am73 °FSunny.2 mph38%29.89 "Hg10 mi
7:20 am70 °FSunny.2 mph40%29.89 "Hg10 mi
6:50 am64 °FSunny.5 mph52%29.89 "Hg10 mi
6:20 am63 °FSunny.5 mph56%29.89 "Hg10 mi
5:50 am63 °FSunny.5 mph56%29.89 "Hg10 mi
5:20 am63 °FClear.3 mph59%29.89 "Hg10 mi
4:50 am63 °FClear.2 mph59%29.89 "Hg10 mi
4:20 am63 °FClear.1 mph68%29.89 "Hg10 mi
3:50 am63 °FClear.1 mph64%29.86 "Hg10 mi
3:20 am64 °FClear.2 mph64%29.86 "Hg10 mi
Weather by CustomWeather, © 2017

See weather overviewHow to use our weather pages